[[{"header":{"parameterUnit":"m.s-1","parameterCategory":1,"la1":30.2991,"la2":30.254,"lo1":-89.0895,"lo2":-89.0444,"dy":0.0017,"dx":0.0017,"nx":28,"ny":28,"refTime":"2025-09-02T09:00:00:Z","depth":0,"parameterNumber":2,"parameterNumberName":"U-component_of_WINDS"},"data":[0,0,0,0,0,0,0,0,0,0,0,0,0,0,0,0,0,0,0,0,0,0,0,0,0,0,0,0,0,0,0,0,0,0,0,0,0,0,0,0,0,0,0,0,0,0,0,0,0,0,0,0,0,0,0,0,0,0,-3.5184,-3.5184,0,-3.5195,-3.5195,-3.5195,-3.5032,-3.5027,-3.5023,-3.5019,-3.5032,-3.5036,-3.5041,0,0,0,0,0,0,0,0,0,0,0,0,0,-3.5022,-3.5026,-3.5184,-3.5184,-3.5184,-3.5195,-3.5195,-3.5195,-3.5033,-3.5027,-3.5022,-3.5017,-3.5031,-3.5036,-3.5041,0,0,0,0,0,0,0,0,0,0,0,0,0,-3.5069,-3.5028,-3.5184,-3.5104,-3.5097,-3.5195,-3.5195,-3.5195,-3.5034,-3.5027,-3.5021,-3.5014,-3.5029,-3.5035,-3.5042,-3.5217,0,0,-3.5063,-3.5065,0,0,0,0,0,0,0,0,-3.5067,-3.5075,-3.5116,-3.511,-3.5102,-3.5105,-3.5143,-3.5202,-3.5036,-3.5058,-3.5019,-3.5011,-3.5062,-3.5065,-3.5082,-3.5217,-3.5218,-3.5063,-3.5067,-3.507,-3.5072,0,0,0,0,0,0,0,-3.5064,-3.5074,-3.5188,-3.5116,-3.5108,-3.5068,-3.5067,-3.5153,-3.5097,-3.5055,-3.5044,-3.5047,-3.5057,-3.5076,-3.5081,-3.5218,-3.5063,-3.5069,-3.5073,-3.5076,-3.5497,-3.5504,0,0,0,0,0,0,-3.5071,-3.5072,-3.5188,-3.5188,-3.5068,-3.5077,-3.5076,-3.5111,-3.5096,-3.5087,-3.5053,-3.504,-3.5068,-3.5074,-3.5081,-3.5284,-3.507,-3.5076,-3.508,-3.549,-3.5498,-3.5506,0,0,0,0,0,0,-3.5068,-3.5083,-3.5187,-3.5127,-3.5137,-3.5086,-3.5127,-3.5115,-3.5134,-3.5094,-3.5083,-3.5083,-3.5063,-3.5072,-3.5184,-3.5283,-3.5079,-3.5085,-3.5481,-3.5492,-3.5502,-3.5693,0,0,0,0,0,0,-3.5064,-3.5083,-3.5149,-3.513,-3.5141,-3.529,-3.5133,-3.512,-3.5145,-3.5128,-3.5119,-3.5111,-3.5058,-3.5175,-3.5191,-3.5288,-3.5091,-3.5472,-3.5486,-3.5499,-3.5678,-3.5709,-3.5736,0,0,0,0,0,-3.5059,-3.5202,-3.5153,-3.5168,-3.5222,-3.5296,-3.5303,-3.5239,-3.5154,-3.522,-3.5194,-3.5111,-3.5269,-3.5188,-3.5204,-3.5305,-3.5466,-3.5482,-3.5498,-3.5665,-3.5703,-3.5735,0,0,0,0,0,0,-3.5234,-3.5198,-3.5143,-3.5284,-3.5295,-3.5268,-3.5349,-3.5281,-3.5316,-3.5298,-3.5218,-3.5217,-3.5343,-3.5335,-3.5245,-3.5473,-3.5353,-3.5373,-3.5474,-3.551,-3.5538,-3.5537,-3.5096,0,0,0,0,0,-3.5289,-3.5352,-3.5317,-3.5445,-3.5453,-3.5401,-3.5431,-3.538,-3.5388,-3.5392,-3.5374,-3.5385,-3.5437,-3.5473,-3.5518,-3.5676,-3.5671,-3.5753,-3.5782,-3.5806,-3.5825,-3.5907,-3.5943,-3.5559,-3.5559,-3.5558,0,0,-3.5404,-3.5392,-3.5436,-3.548,-3.5482,-3.5549,-3.5406,-3.5483,-3.5532,-3.5403,-3.5508,-3.5496,-3.5503,-3.5639,-3.5697,-3.5636,-3.593,-3.5827,-3.5846,-3.5851,-3.5928,-3.5964,-3.5997,-3.557,-3.5568,-3.5566,0,0,-3.5646,-3.5644,-3.575,-3.5755,-3.5759,-3.5723,-3.5749,-3.5734,-3.5721,-3.5825,-3.573,-3.5787,-3.5878,-3.5887,-3.5903,-3.615,-3.6075,-3.6167,-3.6318,-3.64,-3.643,-3.6457,-3.6545,-3.6577,-3.6185,-3.6186,-3.6186,0,-3.5788,-3.5885,-3.5813,-3.5896,-3.5919,-3.5805,-3.5912,-3.592,-3.5941,-3.5959,-3.5889,-3.6001,-3.5998,-3.6134,-3.6194,-3.6211,-3.6238,-3.6168,-3.6432,-3.6457,-3.6481,-3.6564,-3.6597,-3.6197,-3.6196,-3.6195,-3.6194,0,-3.6058,-3.6127,-3.6212,-3.6234,-3.6266,-3.6361,-3.6304,-3.6345,-3.6292,-3.6264,-3.6371,-3.6363,-3.6405,-3.6434,-3.6383,-3.6563,-3.6525,-3.6446,-3.6322,-3.653,-3.6607,-3.6638,-3.6213,-3.6209,-3.6206,-3.6203,0,0,-3.6411,-3.6392,-3.6425,-3.6433,-3.643,-3.6482,-3.6572,-3.6612,-3.6649,-3.6667,-3.674,-3.682,-3.6746,-3.6765,-3.6715,-3.6787,-3.6982,-3.6697,-3.6696,-3.6751,-3.718,-3.724,-3.7278,-3.6933,-3.6939,-3.6943,-3.718,0,-3.6647,-3.6799,-3.6737,-3.6895,-3.6958,-3.6851,-3.6929,-3.6937,-3.6913,-3.6963,-3.6936,-3.6994,-3.6892,-3.6903,-3.6969,-3.6945,-3.7068,-3.6927,-3.7001,-3.7004,-3.7002,-3.7318,-3.7382,-3.7605,-3.7209,-3.7214,-3.7218,0,-3.6942,-3.6971,-3.7136,-3.7121,-3.7145,-3.7217,-3.7249,-3.7298,-3.7304,-3.7282,-3.7304,-3.7237,-3.7325,-3.7203,-3.7323,-3.7228,-3.7255,-3.7248,-3.7255,-3.7259,-3.7124,-3.7331,-3.7675,-3.7709,-3.7264,-3.7261,-3.7257,0,-3.7183,-3.7263,-3.7372,-3.7382,-3.7369,-3.7422,-3.7418,-3.7418,-3.7446,-3.7475,-3.7492,-3.7531,-3.7553,-3.7584,-3.753,-3.7446,-3.7658,-3.7532,-3.7643,-3.7644,-3.7692,-3.769,-3.8045,-3.771,-3.7709,-3.7709,-3.7708,0,-3.7452,-3.7557,-3.748,-3.7547,-3.7661,-3.7589,-3.7704,-3.7689,-3.769,-3.7752,-3.7662,-3.7723,-3.7648,-3.7702,-3.766,-3.7766,-3.7776,-3.7761,-3.7749,-3.7769,-3.7771,-3.7785,-3.7768,-3.7718,-3.7716,-3.7714,-3.7712,0,-3.774,-3.7693,-3.7804,-3.7782,-3.7779,-3.7864,-3.7845,-3.7906,-3.7876,-3.7957,-3.7971,-3.7925,-3.7983,-3.7933,-3.7989,-3.7961,-3.8102,-3.8067,-3.81,-3.809,-3.8204,-3.8194,-3.8581,-3.8628,-3.8264,-3.8267,-3.827,0,-3.7915,-3.7993,-3.7979,-3.8014,-3.8017,-3.8074,-3.8103,-3.8036,-3.8069,-3.8082,-3.8142,-3.8192,-3.8229,-3.8328,-3.83,-3.8343,-3.8308,-3.8441,-3.8314,-3.8332,-3.831,-3.8306,-3.8314,-3.8467,-3.8471,-3.8475,-3.8478,0,-3.823,-3.8203,-3.8247,-3.8284,-3.832,-3.8346,-3.8364,-3.8399,-3.8329,-3.8372,-3.843,-3.8459,-3.8516,-3.8568,-3.8602,-3.8599,-3.8528,-3.8518,-3.8546,-3.8567,-3.8583,-3.8576,-3.817,-3.8509,-3.8506,-3.8504,-3.8502,-3.8501,-3.8466,-3.853,-3.8531,-3.8583,-3.859,-3.861,-3.8666,-3.8644,-3.8691,-3.8732,-3.869,-3.8761,-3.8765,-3.8803,-3.8809,-3.8864,-3.8808,-3.8849,-3.8859,-3.887,-3.8887,-3.8574,-3.887,-3.8869,-3.8868,-3.8867,-3.8866,0,-3.8776,-3.8772,-3.8821,-3.8849,-3.8891,-3.882,-3.8837,-3.8876,-3.894,-3.895,-3.8988,-3.9055,-3.9105,-3.9081,-3.9125,-3.9174,-3.9142,-3.9187,-3.9183,-3.9183,-3.8934,-3.8905,-3.9212,-3.9212,-3.9212,-3.9212,-3.9212,-3.9212,-3.8943,-3.9048,-3.9021,-3.9129,-3.9123,-3.9191,-3.9207,-3.9225,-3.9233,-3.9312,-3.9353,-3.9336,-3.9333,-3.9375,-3.9418,-3.941,-3.943,-3.9488,-3.9468,-3.9235,-3.9201,-3.9168,-3.9141,-3.9493,-3.9493,-3.9712,-3.9714,-3.9716]},{"header":{"parameterUnit":"m.s-1","parameterCategory":1,"la1":30.2991,"la2":30.254,"lo1":-89.0895,"lo2":-89.0444,"dy":0.0017,"dx":0.0017,"nx":28,"ny":28,"refTime":"2025-09-02T09:00:00:Z","depth":0,"parameterNumber":3,"parameterNumberName":"V-component_of_WINDS"},"data":[0,0,0,0,0,0,0,0,0,0,0,0,0,0,0,0,0,0,0,0,0,0,0,0,0,0,0,0,0,0,0,0,0,0,0,0,0,0,0,0,0,0,0,0,0,0,0,0,0,0,0,0,0,0,0,0,0,0,-0.5162,-0.5163,0,-0.528,-0.5282,-0.5283,-0.5379,-0.538,-0.5381,-0.5382,-0.5503,-0.5505,-0.5508,0,0,0,0,0,0,0,0,0,0,0,0,0,-0.5018,-0.502,-0.5162,-0.5163,-0.5165,-0.528,-0.5282,-0.5283,-0.5379,-0.538,-0.5381,-0.5382,-0.5502,-0.5505,-0.5508,0,0,0,0,0,0,0,0,0,0,0,0,0,-0.5103,-0.5021,-0.5161,-0.5226,-0.5233,-0.528,-0.5282,-0.5284,-0.5378,-0.538,-0.5381,-0.5383,-0.5501,-0.5505,-0.5508,-0.55,0,0,-0.5519,-0.552,0,0,0,0,0,0,0,0,-0.5098,-0.5108,-0.5215,-0.5222,-0.523,-0.5316,-0.5276,-0.5356,-0.5378,-0.5323,-0.5382,-0.5383,-0.544,-0.5448,-0.5467,-0.5506,-0.5511,-0.5519,-0.5521,-0.5523,-0.5524,0,0,0,0,0,0,0,-0.5092,-0.5103,-0.5209,-0.5216,-0.5225,-0.5249,-0.5263,-0.5291,-0.5372,-0.5328,-0.5335,-0.5348,-0.5444,-0.5464,-0.5471,-0.5513,-0.5519,-0.5522,-0.5524,-0.5526,-0.555,-0.5549,0,0,0,0,0,0,-0.5076,-0.5098,-0.5205,-0.5212,-0.5166,-0.5251,-0.5266,-0.5287,-0.5372,-0.5386,-0.5347,-0.5352,-0.5457,-0.5467,-0.5475,-0.5471,-0.5523,-0.5526,-0.5528,-0.5552,-0.555,-0.5549,0,0,0,0,0,0,-0.5072,-0.5084,-0.52,-0.5157,-0.5174,-0.5251,-0.5274,-0.5288,-0.5308,-0.5386,-0.5401,-0.5352,-0.5459,-0.5471,-0.5493,-0.5477,-0.5528,-0.5531,-0.5554,-0.5551,-0.5549,-0.5463,0,0,0,0,0,0,-0.5068,-0.5083,-0.508,-0.5156,-0.5175,-0.5215,-0.5273,-0.529,-0.5314,-0.5322,-0.5395,-0.5408,-0.5461,-0.5488,-0.5497,-0.5483,-0.5533,-0.5555,-0.5553,-0.555,-0.5468,-0.5458,-0.545,0,0,0,0,0,-0.5062,-0.5052,-0.508,-0.5092,-0.5174,-0.5214,-0.5225,-0.5286,-0.5312,-0.5311,-0.536,-0.5406,-0.5477,-0.5489,-0.55,-0.5487,-0.5557,-0.5553,-0.555,-0.5472,-0.546,-0.545,0,0,0,0,0,0,-0.4972,-0.5063,-0.5095,-0.5108,-0.5153,-0.523,-0.523,-0.5272,-0.531,-0.5316,-0.539,-0.5405,-0.542,-0.5456,-0.5467,-0.5483,-0.5523,-0.5522,-0.5459,-0.5449,-0.544,-0.5431,-0.5536,0,0,0,0,0,-0.4953,-0.4978,-0.5057,-0.5061,-0.5081,-0.5151,-0.5171,-0.5214,-0.5263,-0.5283,-0.5334,-0.538,-0.5413,-0.5433,-0.5468,-0.5473,-0.549,-0.547,-0.5461,-0.5453,-0.5451,-0.5457,-0.5448,-0.5538,-0.5538,-0.5538,0,0,-0.4916,-0.4968,-0.498,-0.5044,-0.5083,-0.5107,-0.5167,-0.519,-0.5209,-0.5286,-0.5311,-0.535,-0.5406,-0.542,-0.5429,-0.545,-0.543,-0.5449,-0.5443,-0.5445,-0.5453,-0.5444,-0.5436,-0.5536,-0.5536,-0.5537,0,0,-0.4859,-0.4902,-0.491,-0.4948,-0.5007,-0.5054,-0.5055,-0.5127,-0.5156,-0.5181,-0.524,-0.5263,-0.5318,-0.5356,-0.5382,-0.5339,-0.5382,-0.5348,-0.5302,-0.5306,-0.5299,-0.5293,-0.5278,-0.5271,-0.5346,-0.5346,-0.5346,0,-0.4805,-0.4844,-0.4908,-0.4928,-0.4954,-0.5025,-0.5034,-0.5068,-0.5135,-0.5152,-0.5175,-0.5246,-0.5288,-0.5312,-0.5301,-0.532,-0.5324,-0.534,-0.5295,-0.529,-0.5285,-0.5271,-0.5265,-0.5341,-0.5342,-0.5342,-0.5343,0,-0.4774,-0.4799,-0.4799,-0.4861,-0.4888,-0.4901,-0.4968,-0.4987,-0.5027,-0.5071,-0.5096,-0.515,-0.5197,-0.5206,-0.5246,-0.5235,-0.5246,-0.5281,-0.5322,-0.5271,-0.5259,-0.5254,-0.5335,-0.5336,-0.5338,-0.5339,0,0,-0.4664,-0.4762,-0.476,-0.4789,-0.4859,-0.4881,-0.4897,-0.4943,-0.4957,-0.5001,-0.5017,-0.5062,-0.5094,-0.5124,-0.5169,-0.5172,-0.5134,-0.5208,-0.521,-0.5191,-0.5125,-0.5098,-0.509,-0.5163,-0.5163,-0.5162,-0.512,0,-0.4618,-0.4652,-0.4711,-0.4726,-0.475,-0.4818,-0.4833,-0.4877,-0.4919,-0.4946,-0.4992,-0.5022,-0.5063,-0.5082,-0.5088,-0.5137,-0.5122,-0.5141,-0.5179,-0.5179,-0.5162,-0.5084,-0.5056,-0.5014,-0.5116,-0.5115,-0.5115,0,-0.4569,-0.4609,-0.4626,-0.4694,-0.4706,-0.4718,-0.4764,-0.4789,-0.4841,-0.4871,-0.4903,-0.4952,-0.4973,-0.5011,-0.5041,-0.5053,-0.5072,-0.5098,-0.5098,-0.5103,-0.5143,-0.5087,-0.5002,-0.4995,-0.5108,-0.5108,-0.5109,0,-0.4486,-0.4544,-0.4562,-0.4585,-0.4664,-0.4671,-0.4705,-0.4758,-0.4781,-0.4821,-0.4837,-0.4879,-0.4902,-0.4934,-0.4992,-0.5014,-0.5016,-0.5058,-0.5041,-0.5039,-0.5038,-0.5037,-0.4954,-0.505,-0.505,-0.5051,-0.5051,0,-0.4429,-0.4437,-0.4526,-0.4536,-0.4547,-0.4614,-0.4623,-0.4663,-0.4709,-0.4729,-0.4791,-0.4808,-0.4884,-0.491,-0.4957,-0.4974,-0.4984,-0.5009,-0.5021,-0.5003,-0.5,-0.5016,-0.5021,-0.5049,-0.5049,-0.505,-0.505,0,-0.4339,-0.4398,-0.4422,-0.4495,-0.4514,-0.4518,-0.4581,-0.4594,-0.4639,-0.4663,-0.4673,-0.4744,-0.4777,-0.4839,-0.4891,-0.4922,-0.4929,-0.4951,-0.4911,-0.4919,-0.4898,-0.4899,-0.4822,-0.4815,-0.4916,-0.4915,-0.4914,0,-0.4298,-0.4306,-0.4379,-0.4397,-0.4428,-0.4455,-0.4479,-0.4546,-0.4568,-0.4627,-0.4633,-0.4671,-0.4706,-0.4756,-0.4812,-0.4852,-0.4874,-0.4845,-0.4881,-0.4862,-0.4873,-0.4872,-0.4873,-0.4836,-0.4835,-0.4834,-0.4833,0,-0.4219,-0.4248,-0.428,-0.4322,-0.4349,-0.4385,-0.4425,-0.4436,-0.4511,-0.4533,-0.4568,-0.4595,-0.4647,-0.4684,-0.4732,-0.4767,-0.4812,-0.4821,-0.4819,-0.4801,-0.4778,-0.4789,-0.4889,-0.4822,-0.4823,-0.4824,-0.4825,-0.4825,-0.4153,-0.4162,-0.4215,-0.4249,-0.4285,-0.4321,-0.4336,-0.4383,-0.4414,-0.4461,-0.4498,-0.453,-0.4582,-0.465,-0.4682,-0.4708,-0.4729,-0.4727,-0.4726,-0.4724,-0.4717,-0.4773,-0.4717,-0.4717,-0.4718,-0.4718,-0.4718,0,-0.4077,-0.4114,-0.4144,-0.4197,-0.4223,-0.4264,-0.4309,-0.4329,-0.4356,-0.44,-0.4432,-0.4472,-0.4508,-0.4567,-0.4608,-0.4617,-0.4639,-0.4626,-0.4626,-0.4633,-0.4695,-0.4693,-0.4608,-0.4608,-0.4608,-0.4608,-0.4608,-0.4608,-0.404,-0.4059,-0.4094,-0.413,-0.4168,-0.42,-0.4222,-0.4255,-0.429,-0.4332,-0.4362,-0.44,-0.445,-0.4495,-0.453,-0.4547,-0.4559,-0.4539,-0.4561,-0.4618,-0.4629,-0.4638,-0.4636,-0.4541,-0.4541,-0.4497,-0.4496,-0.4496]}]]